STARLINK-11075 (58706 NORAD) Tracking and Keplerian Element Data

This shows tracking and keplerian element data for the satellite.

Feedback or suggestion? Click here.




ElementValue
Catalog58706
NameSTARLINK-11075
Epoch Orbit276
Epoch Day13.25002315
Epoch Year2024
RAAN198.3432
Inclination53.1629
Eccentricity0.0001331
Argument of Perigee42.7239
Mean Anonmoly54.36
Mean Motion15.70202018
Decay Rate0.00099806
L11 58706U 24002B 24013.25002315 .00099806 00000+0 80225-3 0 9993
L22 58706 53.1629 198.3432 0001331 42.7239 54.3600 15.70202018 2768



Live tracking and technical data element details for STARLINK-11075 (NORAD 58706). STARLINK-11075 can be tracked NOW for your location showing map with azimuth and elevation plus other details from your city location.







IsCatalogInMostPopularTable: catalog: 58706, numindb: 26
Update: records affected: 1



GetName: 58706 STARLINK-11075

Hit Count: updated at: Wed, 17 Apr 2024 02:36:15 GMT